Ocean City, MD

12:56 AM EST on December 12, 2017 (GMT -0500)
Ocean City Municipal

Weather History for KOXB - November, 2012

Change the Weather History Date:

Tuesday, November 6, 2012

  Actual Average (KSBY) Record (KSBY)
Temperature  
Mean Temperature 41 °F -  
Max Temperature 50 °F 58 °F 81 °F (1961)
Min Temperature 32 °F 37 °F 21 °F (1967)
Degree Days  
Heating Degree Days 24    
Moisture  
Dew Point 36 °F    
Average Humidity 74    
Maximum Humidity 85    
Minimum Humidity 61    
Precipitation  
Precipitation 0.00 in - - ()
Sea Level Pressure  
Sea Level Pressure 30.07 in    
Wind  
Wind Speed 9 mph (NNE)    
Max Wind Speed 17 mph    
Max Gust Speed 26 mph    
Visibility 10 miles    
Events      
Averages and records for this station are not official NWS values.
T = Trace of Precipitation, MM = Missing Value Source: NWS Daily Summary

Daily Weather History Graph

Daily Weather History Graph

Search for Another Location

Airport or City:

Trip Planner

Search our weather history database for the weather conditions in past years. The results will help you decide how hot, cold, wet, or windy it might be!

Date:

Astronomy

Nov. 06, 2012 Rise Set
Actual Time 6:32 AM EST 4:55 PM EST
Civil Twilight 6:04 AM EST 5:22 PM EST
Nautical Twilight 5:33 AM EST 5:54 PM EST
Astronomical Twilight 5:02 AM EST 6:25 PM EST
Moon 11:30 PM EST (11/6) 12:24 PM EST (11/6)
Length of Visible Light 11h 18m
Length of Day
10h 22m
Waning Gibbous, 53% of the Moon is Illuminated
Nov 6
Waning Gibbous
Nov 6
Last Quarter
Nov 13
New
Nov 20
First Quarter
Nov 28
Full

Hourly Weather History & Observations

Time (EST) Temp. Windchill Dew Point Humidity Pressure Visibility Wind Dir Wind Speed Gust Speed Precip Events Conditions
12:53 AM 32.0 °F 26.4 °F 28.0 °F 85% 30.15 in 10.0 mi NNW 5.8 mph - N/A   Clear
1:53 AM 33.1 °F 28.7 °F 28.0 °F 82% 30.16 in 10.0 mi NNW 4.6 mph - N/A   Clear
2:53 AM 32.0 °F 26.4 °F 28.0 °F 85% 30.15 in 10.0 mi NNW 5.8 mph - N/A   Clear
3:53 AM 32.0 °F 26.4 °F 27.0 °F 82% 30.14 in 10.0 mi North 5.8 mph - N/A   Clear
4:53 AM 34.0 °F 28.0 °F 27.0 °F 75% 30.14 in 10.0 mi North 6.9 mph - N/A   Clear
5:53 AM 34.0 °F 28.0 °F 27.0 °F 75% 30.15 in 10.0 mi NNW 6.9 mph - N/A   Clear
6:53 AM 34.0 °F 28.0 °F 28.0 °F 79% 30.16 in 10.0 mi NNW 6.9 mph - N/A   Partly Cloudy
7:53 AM 36.0 °F 29.0 °F 28.9 °F 76% 30.16 in 10.0 mi North 9.2 mph - N/A   Clear
8:53 AM 39.0 °F 33.4 °F 32.0 °F 76% 30.17 in 10.0 mi NNW 8.1 mph - N/A   Clear
9:53 AM 45.0 °F 39.3 °F 35.1 °F 68% 30.16 in 10.0 mi North 11.5 mph - N/A   Clear
10:53 AM 48.0 °F - 37.0 °F 66% 30.16 in 10.0 mi North 9.2 mph - N/A   Scattered Clouds
11:53 AM 50.0 °F - 37.9 °F 63% 30.13 in 10.0 mi Variable 6.9 mph - N/A   Overcast
12:53 PM 48.9 °F - 36.0 °F 61% 30.09 in 10.0 mi ENE 13.8 mph 19.6 mph N/A   Mostly Cloudy
1:53 PM 48.9 °F - 36.0 °F 61% 30.08 in 10.0 mi NE 10.4 mph - N/A   Mostly Cloudy
2:53 PM 48.9 °F - 37.9 °F 66% 30.05 in 10.0 mi NE 11.5 mph - N/A   Overcast
3:53 PM 48.9 °F - 39.0 °F 69% 30.06 in 10.0 mi NE 11.5 mph - N/A   Overcast
4:53 PM 48.9 °F - 39.9 °F 71% 30.04 in 10.0 mi NE 11.5 mph - N/A   Mostly Cloudy
5:53 PM 48.9 °F - 39.9 °F 71% 30.02 in 10.0 mi NE 15.0 mph - N/A   Overcast
6:26 PM 48.2 °F - 41.0 °F 76% 30.01 in 10.0 mi NE 12.7 mph 23.0 mph N/A   Overcast
6:42 PM 48.2 °F - 41.0 °F 76% 30.00 in 10.0 mi NE 13.8 mph 21.9 mph N/A   Overcast
6:53 PM 48.9 °F - 41.0 °F 74% 29.99 in 10.0 mi NE 17.3 mph 23.0 mph N/A   Overcast
7:02 PM 48.2 °F - 41.0 °F 76% 29.98 in 10.0 mi NE 12.7 mph 25.3 mph N/A   Overcast
7:53 PM 48.9 °F - 41.0 °F 74% 30.01 in 10.0 mi NE 16.1 mph 25.3 mph N/A   Overcast
8:53 PM 48.9 °F - 42.1 °F 77% 29.99 in 10.0 mi NE 15.0 mph 23.0 mph N/A   Overcast
9:53 PM 48.9 °F - 42.1 °F 77% 29.96 in 10.0 mi NE 15.0 mph 26.5 mph N/A   Overcast
10:53 PM 48.9 °F - 42.1 °F 77% 29.94 in 10.0 mi NE 16.1 mph 24.2 mph N/A   Overcast
11:53 PM 46.9 °F - 41.0 °F 80% 29.90 in 10.0 mi North 16.1 mph 24.2 mph N/A   Overcast